CAPE
900 452 667 688 858 833 919 751 1151 1091 1103 1021 660 97 16 3 6 130 989 1689 1690 1736 1966 1808 1354 274 1586 1888 1737 1668 1491 1240 1469 1431 1207 1213 1433 1330 1506 1172 1238 1381 930
1071 1002 1098 927 1250 1402 1449 1221 1014 738 504 351 531 43 9 71 46 48 353 1225 1815 1439 1660 2007 1737 620 617 2098 1832 1841 1862 1783 1376 1111 1627 1458 1763 1644 1725 1309 1105 984 1146
1174 1671 1407 981 1351 1345 1494 810 777 314 49 93 6 3 17 20 7 0 9 54 1273 2002 1471 2073 2114 1697 1261 1845 1884 1967 2129 2271 2047 1817 1747 1681 1890 1911 1885 1689 1789 1567 1399
1860 1670 1284 1298 827 1128 998 878 798 513 311 0 0 18 11 13 10 14 79 0 650 1062 1786 1716 2161 2273 1924 1734 1655 2030 2399 2321 2102 2059 2040 1823 1736 1934 2264 2162 2007 1698 1765
1745 1173 1404 1084 886 1139 945 613 514 339 34 0 0 9 2 5 4 4 3 25 36 439 1052 1476 1588 1557 1325 1451 1640 1753 1513 2276 2351 2257 2256 2119 1995 1936 1925 1980 1988 2101 2092
1182 1227 1240 1305 1176 1035 519 430 223 9 0 0 0 0 9 20 3 0 0 7 127 816 792 951 803 1027 1714 1594 1560 1737 1758 1847 1901 1837 1938 1966 2030 1999 1998 2021 1920 1918 1815
1418 1366 1310 1348 1466 1028 517 467 68 0 0 3 1 11 33 28 24 0 0 0 0 0 295 350 431 735 1336 1432 1576 1604 1253 1137 1332 1396 1365 1842 2059 1925 1685 1928 1897 1905 1961
1609 1432 1341 1321 1154 1135 547 268 13 0 0 0 0 0 23 67 40 3 9 0 0 0 0 0 90 591 876 676 406 431 369 491 752 1118 1270 1136 1024 1042 1371 1342 1343 1249 1609
1747 1362 1455 1163 995 809 529 275 0 0 0 0 0 2 29 26 34 35 19 0 0 0 0 0 0 0 442 104 43 0 0 0 4 113 224 370 444 421 467 613 919 1208 1405
2001 1193 1216 1385 1041 441 175 28 48 1 39 0 88 0 0 9 31 48 27 10 0 0 0 0 0 0 0 27 0 0 0 0 0 0 0 0 0 0 0 0 14 103 351
1859 1597 1653 1610 1126 463 108 82 18 0 110 7 27 52 2 0 0 2 28 8 11 2 0 0 0 0 0 0 0 0 0 0 0 0 0 0 0 0 0 0 0 0 0
1492 1909 1461 1369 974 567 69 46 60 15 91 86 9 10 0 0 0 1 3 0 10 10 12 1 0 0 0 0 0 0 0 0 0 0 0 0 0 0 0 0 0 0 0
1899 1769 1637 1246 801 339 134 49 61 111 56 59 0 1 21 0 0 0 0 0 0 2 19 25 8 1 0 0 0 0 0 0 0 0 0 0 0 0 0 0 0 0 0
1611 1415 1214 894 688 379 372 301 102 108 75 6 74 0 0 0 0 0 2 1 0 1 0 1 9 13 2 0 0 30 0 0 0 0 0 0 0 0 0 0 0 0 0
1708 1292 1303 1124 875 718 280 244 135 16 269 94 0 0 2 0 0 1 23 11 0 0 0 8 0 10 16 13 1 6 0 0 0 0 0 0 0 0 0 0 0 0 0
1280 1222 1362 1421 1245 799 315 231 132 117 44 89 63 31 0 0 0 39 23 13 8 8 6 0 23 3 54 40 25 54 9 54 15 15 0 0 0 0 0 2 0 0 0
1411 1146 1050 1717 1291 827 349 374 104 37 180 5 1 0 54 62 34 21 90 59 28 41 15 22 8 21 20 11 0 0 7 28 35 15 1 0 0 0 0 2 8 0 0
1570 1362 1331 1043 1453 1037 604 436 213 124 39 116 20 16 7 0 102 87 169 154 175 187 120 53 74 80 49 54 9 9 32 63 24 8 3 7 0 0 6 6 0 0 0
1780 1328 1357 1270 1106 1003 758 490 334 148 179 105 130 92 60 59 92 205 174 231 209 151 122 76 54 49 33 23 36 10 2 25 23 94 64 35 29 4 0 0 3 4 0
2264 1721 1373 1382 1249 1044 841 570 497 296 143 231 160 265 243 70 109 345 227 153 176 176 160 97 71 41 31 34 22 60 4 0 0 10 12 6 6 4 0 0 0 0 0
2707 2476 2144 1789 1475 1237 984 601 458 336 239 312 202 327 266 345 342 286 217 257 210 171 151 129 81 16 3 2 13 10 0 0 0 0 0 0 0 0 0 1 0 2 0
2817 2619 2315 2019 1774 1530 1237 716 472 397 430 440 354 455 218 519 494 411 386 301 284 303 201 82 50 36 7 4 16 29 13 0 0 0 0 0 0 0 0 0 0 0 0
3065 2971 2762 2432 2188 2036 1671 1148 416 415 394 362 384 465 393 388 326 344 303 146 131 226 181 108 33 3 0 2 43 35 7 15 0 0 0 0 0 0 0 0 0 0 0
3288 3217 3116 2750 2521 2210 1746 1091 572 357 507 466 496 537 504 265 208 259 289 298 296 295 185 118 89 85 77 78 112 106 39 8 0 0 0 0 0 0 0 0 0 0 0
3303 3369 2876 2770 2670 2362 1759 915 561 354 335 421 303 307 271 97 174 358 293 271 119 100 100 370 496 407 203 179 237 131 28 2 0 0 0 0 0 0 0 0 0 0 0
2592 2402 2883 2734 2212 1583 1195 513 510 397 403 295 79 122 125 195 464 376 229 171 76 117 128 125 136 77 75 3 26 35 25 19 19 3 0 0 0 0 0 0 0 0 0
CIN
-19 -29 -91 -19 -14 -19 -34 -26 -21 -39 -32 -28 -24 -126 -12 -1 -125 -133 -58 -32 -39 -29 -4 -7 -26 -93 -1 0 0 0 0 0 0 0 0 0 0 0 0 0 0 0 -2
-55 -23 -25 -41 -44 -34 -43 -52 -62 -38 -38 -102 -88 -146 -7 -81 -169 -138 -82 -59 -36 -47 -19 -4 -8 -61 -52 0 0 0 0 0 0 -2 0 -1 0 0 0 0 0 0 0
-41 -27 -27 -14 -29 -25 -29 -55 -78 -51 -111 -102 -24 -21 -24 -153 -14 0 -236 -143 -53 -31 -31 -8 -10 -16 -26 -4 0 0 0 0 0 0 0 0 0 0 0 0 0 0 0
-33 -24 -18 -12 -14 -69 -48 -39 -44 -31 -69 0 0 -32 -12 -27 -19 -6 -142 0 -45 -39 -40 -26 -12 -10 -13 -6 -8 -2 0 0 -1 0 0 0 0 0 0 0 0 -1 0
-41 -39 -20 -7 -11 -16 -13 -18 -24 -62 -27 0 0 -17 -15 -9 -7 -10 -3 -20 -92 -36 -72 -36 -24 -16 -13 -5 -3 -2 -7 -1 -1 -1 0 0 0 0 -1 0 0 0 0
-67 -64 -43 -4 -21 -17 -30 -28 -109 -38 0 0 0 0 -23 -8 -20 0 0 -1 -113 -22 -22 -34 -29 -34 -9 -3 -3 -4 -4 -2 -2 -2 -1 -1 -1 -1 -1 0 0 0 0
-76 -32 -48 -14 -18 -19 -36 -51 -167 0 0 -23 -7 -22 -28 -5 -34 0 0 0 0 0 -100 -43 -55 -47 -34 -13 -13 -8 -10 -11 -10 -9 -10 -4 -1 -2 -3 -1 -1 0 0
-32 -49 -43 -28 -28 -26 -38 -50 -12 0 0 0 0 0 -20 -116 -22 -6 -8 0 0 0 0 0 -90 -23 -19 -15 -60 -57 -65 -45 -16 -5 -6 -9 -14 -11 -4 -7 -7 -14 -4
-71 -31 -49 -32 -14 -29 -58 -74 0 0 0 0 -2 -15 -10 -5 -31 -27 -7 0 0 0 0 0 0 0 -29 -83 -97 0 0 0 -16 -86 -39 -26 -25 -29 -27 -16 -4 -1 -1
-42 -21 -46 -32 -32 -62 -146 -199 -187 -24 -78 0 -61 0 0 -6 -16 -34 -4 -5 0 0 0 0 0 0 0 -149 0 0 0 0 0 0 0 0 0 0 0 0 -19 -89 -35
-26 -57 -23 -19 -33 -89 -219 -220 -254 0 -137 -9 -138 -110 -3 0 0 -30 -6 -36 -81 -2 0 0 0 0 0 0 0 0 0 0 0 0 0 0 0 0 0 0 0 0 0
-52 -35 -51 -53 -70 -110 -247 -278 -293 -124 -177 -129 -176 -116 0 0 0 -4 -8 -2 -19 -40 -10 -1 0 0 0 0 0 0 0 0 0 0 0 0 0 0 0 0 0 0 0
-35 -42 -60 -92 -114 -159 -263 -305 -284 -231 -223 -127 -10 -11 -117 0 0 0 0 0 0 -25 -45 -21 -9 -1 0 0 0 0 0 0 0 0 0 0 0 0 0 0 0 0 0
-50 -75 -141 -148 -132 -165 -219 -236 -255 -258 -222 -165 -117 0 0 0 0 0 -31 -29 0 -6 -6 -6 -35 -58 -5 0 0 -178 0 0 0 0 0 0 0 0 0 0 0 0 0
-60 -100 -157 -143 -125 -116 -247 -237 -266 -323 -170 -197 0 0 -86 0 0 -14 -36 -7 0 0 -2 -31 0 -39 -34 -47 -9 -72 0 0 0 0 0 0 0 0 0 0 0 0 0
-137 -117 -178 -145 -131 -136 -192 -254 -255 -246 -262 -199 -172 -123 0 0 0 -76 -53 -25 -23 -3 -9 -3 -36 -39 -48 -48 -60 -144 -31 -112 -134 -163 0 0 0 0 0 -64 0 0 0
-111 -214 -200 -109 -112 -135 -218 -233 -245 -311 -190 -127 -118 0 -150 -110 -70 -78 -52 -37 -26 -35 -10 -30 -19 -35 -30 -17 0 0 -30 -52 -97 -93 -7 0 0 0 0 -66 -162 -17 0
-89 -167 -83 -124 -119 -136 -152 -228 -231 -240 -318 -195 -183 -148 -147 0 -164 -82 -166 -53 -28 -32 -21 -27 -58 -35 -42 -34 -49 -59 -78 -44 -15 -22 -22 -64 0 -3 -90 -66 0 0 0
-109 -106 -91 -97 -89 -175 -177 -243 -197 -184 -163 -156 -126 -168 -125 -102 -105 -113 -169 -121 -137 -58 -48 -44 -44 -34 -124 -83 -47 -12 -60 -41 -60 -33 -42 -11 -15 -10 0 -11 -67 -39 0
-96 -108 -100 -82 -85 -86 -173 -199 -167 -125 -169 -96 -74 -56 -50 -77 -193 -37 -66 -41 -57 -60 -45 -44 -32 -102 -68 -59 -64 -37 -14 0 0 -42 -37 -24 -12 -3 0 0 0 0 0
-55 -58 -49 -67 -68 -74 -79 -163 -197 -199 -157 -79 -67 -38 -36 -34 -33 -40 -70 -74 -95 -99 -54 -48 -50 -72 -49 -32 -80 -38 0 0 0 0 0 0 0 0 0 -34 0 -30 0
-61 -45 -60 -59 -58 -52 -58 -104 -168 -160 -58 -40 -45 -37 -22 -61 -30 -21 -18 -40 -83 -51 -39 -42 -41 -39 -89 -74 -73 -20 -50 0 0 0 0 0 0 0 0 0 0 0 0
-39 -20 -18 -22 -30 -20 -45 -74 -188 -128 -79 -49 -41 -24 -14 -39 -29 -21 -18 -26 -52 -85 -90 -37 -43 -63 0 -23 -43 -27 -12 -32 0 0 0 0 0 0 0 0 0 0 0
-23 -8 -2 -3 -1 -9 -29 -83 -74 -130 -44 -21 -23 -16 -9 -6 -69 -42 -29 -28 -26 -39 -60 -49 -30 -36 -31 -31 -33 -24 -14 -9 0 0 0 0 0 0 0 0 0 0 0
-2 0 0 0 0 -11 -41 -75 -88 -51 -23 -6 0 -7 -11 -13 -67 -38 -25 -18 -23 -36 -92 -37 -23 -26 -46 -42 -29 -13 -12 -5 0 0 0 0 0 0 0 0 0 0 0
-44 -45 0 -5 -25 -46 -63 -126 -74 -45 -11 -2 -33 -47 -32 -17 -44 -21 -23 -19 -22 -78 -40 -33 -23 -18 -10 -1 -12 -11 -21 -1 -4 -3 0 0 0 0 0 0 0 0 0
Wind_Speed
10 9 13 17 17 12 12 15 14 10 8 10 7 nan nan nan nan 13 15 22 22 22 26 28 27 19 18 18 19 20 18 12 14 13 9 9 9 10 9 6 6 5 7
11 13 14 9 8 12 15 14 11 10 9 9 11 nan nan nan nan nan 14 15 19 20 19 26 29 25 21 20 19 19 18 17 20 13 6 5 5 7 8 6 6 6 5
11 11 10 9 9 12 15 15 14 11 nan nan nan nan nan nan nan nan nan nan 13 17 18 19 23 24 23 20 21 19 17 19 14 24 7 4 3 3 5 5 5 5 4
11 10 9 10 12 13 15 14 17 16 14 nan nan nan nan nan nan nan nan nan 12 12 14 17 20 21 22 22 21 20 18 16 22 21 5 2 1 3 4 5 5 5 4
9 9 10 12 13 13 15 17 17 18 nan nan nan nan nan nan nan nan nan nan nan 11 12 15 15 16 18 18 17 16 17 17 15 16 14 2 2 0 1 3 2 3 4
11 11 13 15 17 19 21 20 20 nan nan nan nan nan nan nan nan nan nan nan 8 15 12 13 7 10 16 13 11 13 13 15 15 14 13 4 5 5 5 5 3 3 1
14 16 16 19 22 22 22 21 nan nan nan nan nan nan nan nan nan nan nan nan nan nan 13 16 12 11 13 18 18 15 10 7 10 12 12 11 8 9 9 9 8 5 4
18 19 21 22 22 23 24 23 nan nan nan nan nan nan nan nan nan nan nan nan nan nan nan nan nan 16 16 15 17 20 17 14 12 13 14 12 10 6 5 4 13 9 7
20 22 24 22 21 19 21 22 nan nan nan nan nan nan nan nan nan nan nan nan nan nan nan nan nan nan 20 18 nan nan nan nan nan 16 17 17 17 14 11 10 9 23 18
21 21 23 21 19 19 20 nan nan nan nan nan nan nan nan nan nan nan nan nan nan nan nan nan nan nan nan nan nan nan nan nan nan nan nan nan nan nan nan nan nan 11 19
18 20 20 20 21 19 20 nan nan nan 23 nan nan nan nan nan nan nan nan nan nan nan nan nan nan nan nan nan nan nan nan nan nan nan nan nan nan nan nan nan nan nan nan
15 16 18 19 20 20 nan nan nan nan nan nan nan nan nan nan nan nan nan nan nan nan nan nan nan nan nan nan nan nan nan nan nan nan nan nan nan nan nan nan nan nan nan
11 13 20 21 15 18 26 nan nan 34 nan nan nan nan nan nan nan nan nan nan nan nan nan nan nan nan nan nan nan nan nan nan nan nan nan nan nan nan nan nan nan nan nan
12 16 20 20 18 22 24 29 30 34 nan nan nan nan nan nan nan nan nan nan nan nan nan nan nan nan nan nan nan nan nan nan nan nan nan nan nan nan nan nan nan nan nan
14 20 15 19 22 23 24 27 29 nan 35 nan nan nan nan nan nan nan nan nan nan nan nan nan nan nan nan nan nan nan nan nan nan nan nan nan nan nan nan nan nan nan nan
19 17 17 23 21 27 29 27 31 35 nan nan nan nan nan nan nan nan nan nan nan nan nan nan nan nan nan nan nan nan nan nan nan nan nan nan nan nan nan nan nan nan nan
13 15 18 19 23 28 35 34 36 nan 39 nan nan nan nan nan nan nan nan nan nan nan nan nan nan nan nan nan nan nan nan nan nan nan nan nan nan nan nan nan nan nan nan
15 19 24 26 27 28 35 46 48 44 nan 37 nan nan nan nan 37 nan 28 29 28 29 31 nan nan nan nan nan nan nan nan nan nan nan nan nan nan nan nan nan nan nan nan
14 16 23 25 33 37 43 48 49 47 38 36 39 nan nan nan nan 32 29 33 29 27 28 nan nan nan nan nan nan nan nan nan nan nan nan nan nan nan nan nan nan nan nan
14 19 28 33 37 42 45 44 43 52 44 37 38 41 44 nan 36 35 33 33 35 28 28 nan nan nan nan nan nan nan nan nan nan nan nan nan nan nan nan nan nan nan nan
20 25 29 29 31 38 42 51 51 50 47 42 41 43 43 39 38 37 33 31 32 33 32 40 nan nan nan nan nan nan nan nan nan nan nan nan nan nan nan nan nan nan nan
22 27 30 34 34 35 48 55 55 48 49 47 41 43 42 36 34 39 35 35 35 35 35 nan nan nan nan nan nan nan nan nan nan nan nan nan nan nan nan nan nan nan nan
26 30 32 36 37 40 49 54 56 55 55 53 47 41 37 34 35 33 29 28 32 37 42 41 nan nan nan nan nan nan nan nan nan nan nan nan nan nan nan nan nan nan nan
31 31 35 38 42 44 51 50 55 57 57 51 48 38 34 33 35 35 36 33 37 43 45 44 nan nan nan nan 55 52 nan nan nan nan nan nan nan nan nan nan nan nan nan
33 25 33 38 43 46 54 54 58 60 54 46 40 36 35 nan 35 36 39 39 42 43 46 48 48 50 49 49 50 56 nan nan nan nan nan nan nan nan nan nan nan nan nan
44 33 38 42 47 50 55 58 61 60 48 41 nan 38 36 36 35 46 46 46 nan 48 44 48 52 nan nan nan nan nan nan nan nan nan nan nan nan nan nan nan nan nan nan
Wind_Direction
45 54 55 50 56 47 47 41 40 53 47 64 38 nan nan nan nan 356 8 11 10 5 1 3 5 9 23 9 352 349 352 341 335 328 331 348 1 13 10 45 33 39 34
29 29 46 46 39 15 17 13 9 26 34 26 38 nan nan nan nan nan 353 8 8 5 7 6 8 11 11 12 354 357 360 1 1 294 301 325 338 6 28 25 25 37 34
9 12 26 16 13 16 2 355 346 355 nan nan nan nan nan nan nan nan nan nan 359 0 0 3 8 13 15 10 2 3 355 359 6 5 243 243 274 346 7 44 23 24 28
345 350 355 11 15 352 349 345 339 345 346 nan nan nan nan nan nan nan nan nan 341 343 351 356 359 7 6 4 2 4 4 1 14 6 262 215 4 34 354 1 6 13 23
349 345 346 352 351 341 327 331 335 331 nan nan nan nan nan nan nan nan nan nan nan 323 327 352 354 355 359 357 4 359 4 10 1 14 25 101 62 37 318 317 327 359 11
358 354 345 347 339 321 321 323 322 nan nan nan nan nan nan nan nan nan nan nan 299 302 316 314 334 335 343 334 342 353 355 353 5 15 20 50 281 270 257 256 261 275 293
359 350 343 337 335 328 333 325 nan nan nan nan nan nan nan nan nan nan nan nan nan nan 295 302 304 297 304 300 296 290 299 320 356 10 15 18 348 13 266 273 270 257 257
345 337 334 329 339 329 322 319 nan nan nan nan nan nan nan nan nan nan nan nan nan nan nan nan nan 301 302 305 302 296 288 277 264 261 270 283 278 275 323 301 237 238 253
338 334 335 331 330 320 322 321 nan nan nan nan nan nan nan nan nan nan nan nan nan nan nan nan nan nan 296 300 nan nan nan nan nan 264 263 268 274 276 274 268 274 228 224
338 337 329 324 312 305 309 nan nan nan nan nan nan nan nan nan nan nan nan nan nan nan nan nan nan nan nan nan nan nan nan nan nan nan nan nan nan nan nan nan nan 251 242
331 325 316 313 328 328 330 nan nan nan 315 nan nan nan nan nan nan nan nan nan nan nan nan nan nan nan nan nan nan nan nan nan nan nan nan nan nan nan nan nan nan nan nan
323 319 317 327 330 341 nan nan nan nan nan nan nan nan nan nan nan nan nan nan nan nan nan nan nan nan nan nan nan nan nan nan nan nan nan nan nan nan nan nan nan nan nan
313 331 335 340 345 344 354 nan nan 1 nan nan nan nan nan nan nan nan nan nan nan nan nan nan nan nan nan nan nan nan nan nan nan nan nan nan nan nan nan nan nan nan nan
338 334 344 344 353 355 1 3 11 9 nan nan nan nan nan nan nan nan nan nan nan nan nan nan nan nan nan nan nan nan nan nan nan nan nan nan nan nan nan nan nan nan nan
358 359 336 347 354 358 359 5 8 nan 359 nan nan nan nan nan nan nan nan nan nan nan nan nan nan nan nan nan nan nan nan nan nan nan nan nan nan nan nan nan nan nan nan
330 343 338 343 342 357 356 357 355 353 nan nan nan nan nan nan nan nan nan nan nan nan nan nan nan nan nan nan nan nan nan nan nan nan nan nan nan nan nan nan nan nan nan
340 340 343 334 337 349 358 353 348 nan 342 nan nan nan nan nan nan nan nan nan nan nan nan nan nan nan nan nan nan nan nan nan nan nan nan nan nan nan nan nan nan nan nan
344 345 335 335 337 345 349 350 346 341 nan 340 nan nan nan nan 333 nan 322 319 306 296 297 nan nan nan nan nan nan nan nan nan nan nan nan nan nan nan nan nan nan nan nan
328 331 338 339 346 347 352 348 343 338 329 336 337 nan nan nan nan 331 322 322 316 309 297 nan nan nan nan nan nan nan nan nan nan nan nan nan nan nan nan nan nan nan nan
317 332 337 335 341 346 346 341 340 337 325 326 335 337 335 nan 328 328 323 324 318 307 306 nan nan nan nan nan nan nan nan nan nan nan nan nan nan nan nan nan nan nan nan
311 316 323 328 333 339 338 335 331 332 340 329 333 332 328 325 324 319 314 319 319 312 303 316 nan nan nan nan nan nan nan nan nan nan nan nan nan nan nan nan nan nan nan
331 329 333 333 333 332 333 328 327 328 329 328 327 326 321 320 313 310 318 317 316 315 312 nan nan nan nan nan nan nan nan nan nan nan nan nan nan nan nan nan nan nan nan
317 324 327 326 328 327 329 326 327 328 325 327 327 320 316 308 309 306 310 303 310 316 313 307 nan nan nan nan nan nan nan nan nan nan nan nan nan nan nan nan nan nan nan
313 317 318 321 325 323 317 326 329 325 324 322 320 320 319 318 309 309 304 303 307 305 308 306 nan nan nan nan 303 301 nan nan nan nan nan nan nan nan nan nan nan nan nan
287 299 311 318 315 316 323 319 322 323 321 320 318 316 316 nan 314 304 301 305 303 300 305 311 310 308 306 304 304 300 nan nan nan nan nan nan nan nan nan nan nan nan nan
294 309 306 310 314 317 327 331 322 317 319 319 nan 322 325 317 310 308 298 302 nan 296 290 289 292 nan nan nan nan nan nan nan nan nan nan nan nan nan nan nan nan nan nan